Flag for Nigeria Weather past 2 weeks in Abeokuta, Nigeria

Now
75 °F

Passing clouds.


Feels Like: 74 °F
Forecast: 72 / 82 °F
Wind: No wind

Location: Lagos / Ikeja

Current Time: Jul 31, 2014 at 4:20:46 AM

Latest Report: Jul 31, 2014 at 4:00 AM


Visibility: N/A

Pressure: 29.98 "Hg

Humidity: 94%

Dew point: 73 °F

Location of AbeokutaLocation

Historic Weather in Abeokuta — Graph

°F

Abeokuta temperature yesterday

Maximum temperature yesterday: 82 °F (at 2:00 PM)
Minimum temperature yesterday: 75 °F (at 2:00 AM)
Average temperature yesterday: 78 °F

Past Weeks' High & Low Weather Summary

 TemperatureHumidityPressure
High88 °F (Jul 19, 1:00 PM)100% (Jul 16, 6:00 AM)30.07 "Hg (Jul 16, 6:00 AM)
Low73 °F (Jul 16, 6:00 AM)66% (Jul 19, 1:00 PM)29.89 "Hg (Jul 26, 6:00 PM)
Average78 °F92%30.00 "Hg
* Reported Jul 16 6:00 AM — Jul 31 3:00 AM, Abeokuta, Weather by CustomWeather, © 2014

Note: Actual official high and low records may vary slightly from our data, if they occured in-between our weather recording intervals... More about our weather records

Advertising

Abeokuta weather history for previous 24 hours

 ConditionsComfort  
Time TempWeatherWind HumidityBarometerVisibility
3:00 AM
Jul 31
75 °FPassing clouds.2 mph100%29.98 "HgN/A
2:00 AM75 °FPassing clouds.No wind100%30.01 "HgN/A
1:00 AM75 °FPassing clouds.9 mph100%30.01 "HgN/A
12:00 AM77 °FPassing clouds.No wind94%30.01 "HgN/A
11:00 PM
Jul 30
77 °FPassing clouds.9 mph94%30.01 "HgN/A
10:00 PM77 °FPassing clouds.7 mph94%30.01 "HgN/A
9:00 PM77 °FPassing clouds.9 mph94%29.98 "HgN/A
8:00 PM77 °FPassing clouds.6 mph94%29.98 "HgN/A
7:00 PM79 °FPartly sunny.12 mph89%29.95 "HgN/A
6:00 PM81 °FPartly sunny.14 mph84%29.95 "HgN/A
5:00 PM82 °FPartly sunny.13 mph79%29.92 "HgN/A
4:00 PM82 °FPartly sunny.9 mph79%29.95 "HgN/A
2:00 PM82 °FPartly sunny.14 mph79%29.98 "HgN/A
8:00 AM75 °FPassing clouds.No wind100%29.98 "Hg5 mi
7:00 AM75 °FScattered clouds.2 mph100%29.98 "Hg4 mi
6:00 AM75 °FPassing clouds.No wind100%29.95 "Hg5 mi
4:00 AM75 °FPassing clouds.No wind100%29.95 "Hg5 mi
Weather by CustomWeather, © 2014

See weather overviewHow to use our weather pages